Location: ??????????
(44.2167°N, 135.5333°E)
Time: 14:50:48
(UTC+00:00)

Cosmos 1455 Rocket - Pass Details

Date: 15 June 2025
Orbit: 598 x 624 km, 82.5° (Epoch: 15 July)

Event Time Altitude Azimuth Distance (km) Brightness Sun altitude
Rises 17:26:00 0° 345° (NNW) 2,882 7.1 -14.5°
Reaches altitude 10° 17:28:18 10° 339° (NNW) 1,968 6.1 -14.3°
Maximum altitude 17:32:26 45° 267° (W) 834 3.4 -13.8°
Enters shadow 17:34:56 21° 205° (SSW) 1,360 4.2 -13.6°
